• en France
  • Liste des pays
  • À 7 jours
  • Température de l'eau
  • Carte satellitaire
  • Carte météo
  • Widgets météo
  • user-avatar
    Se connecter

    Météo par heure à Sobchakovo

    Ce jour, 24 Mai, Jeudi

    Heure Température Précipitation Vent Pression Humidité
    00:00 +19°C° 0,9 mm 1 m/s 755 mmHg 92%
    01:00 +18°C° 0,6 mm 1 m/s 755 mmHg 93%
    02:00 +18°C° 0,6 mm 1 m/s 755 mmHg 94%
    03:00 +19°C° 0 mm 1 m/s 755 mmHg 94%
    04:00 +19°C° 0,7 mm 1 m/s 755 mmHg 94%
    05:00 +19°C° 0,7 mm 1 m/s 754 mmHg 94%
    06:00 +19°C° 0,7 mm 1 m/s 754 mmHg 94%
    07:00 +19°C° 1 mm 1 m/s 754 mmHg 93%
    08:00 +18°C° 1 mm 2 m/s 754 mmHg 92%
    09:00 +19°C° 0 mm 2 m/s 754 mmHg 92%
    10:00 +19°C° 0,8 mm 3 m/s 754 mmHg 90%
    11:00 +20°C° 0,8 mm 3 m/s 754 mmHg 88%
    12:00 +20°C° 0,8 mm 4 m/s 753 mmHg 86%
    13:00 +20°C° 0,4 mm 4 m/s 753 mmHg 86%
    14:00 +20°C° 0,4 mm 4 m/s 753 mmHg 85%
    15:00 +20°C° 0,4 mm 5 m/s 753 mmHg 84%
    16:00 +20°C° 0,2 mm 5 m/s 752 mmHg 84%
    17:00 +20°C° 0,2 mm 5 m/s 752 mmHg 84%
    18:00 +20°C° 0,2 mm 4 m/s 752 mmHg 83%
    19:00 +19°C° 0,3 mm 5 m/s 752 mmHg 86%
    20:00 +17°C° 0,3 mm 5 m/s 752 mmHg 88%
    21:00 +16°C° 0,3 mm 5 m/s 752 mmHg 91%
    22:00 +16°C° 0 mm 5 m/s 752 mmHg 90%
    23:00 +15°C° 0 mm 5 m/s 752 mmHg 89%

    Demain, 25 Mai, Vendredi

    Heure Température Précipitation Vent Pression Humidité
    00:00 +15°C° 0 mm 5 m/s 752 mmHg 88%
    01:00 +15°C° 0 mm 5 m/s 752 mmHg 88%
    02:00 +14°C° 0 mm 5 m/s 752 mmHg 88%
    03:00 +14°C° 0 mm 5 m/s 752 mmHg 88%
    04:00 +14°C° 0 mm 5 m/s 753 mmHg 88%
    05:00 +14°C° 0 mm 6 m/s 753 mmHg 89%
    06:00 +12°C° 0 mm 7 m/s 753 mmHg 90%
    07:00 +14°C° 0 mm 7 m/s 754 mmHg 84%
    08:00 +15°C° 0 mm 7 m/s 754 mmHg 79%
    09:00 +16°C° 0 mm 8 m/s 755 mmHg 73%
    10:00 +17°C° 0 mm 8 m/s 755 mmHg 67%
    11:00 +17°C° 0 mm 8 m/s 756 mmHg 62%
    12:00 +17°C° 0 mm 8 m/s 756 mmHg 56%
    13:00 +17°C° 0 mm 8 m/s 756 mmHg 55%
    14:00 +17°C° 0 mm 8 m/s 757 mmHg 53%
    15:00 +17°C° 0 mm 8 m/s 757 mmHg 52%
    16:00 +17°C° 0 mm 7 m/s 757 mmHg 54%
    17:00 +16°C° 0 mm 6 m/s 757 mmHg 57%
    18:00 +15°C° 0 mm 5 m/s 758 mmHg 60%
    19:00 +14°C° 0 mm 5 m/s 758 mmHg 61%
    20:00 +12°C° 0 mm 4 m/s 759 mmHg 63%
    21:00 +11°C° 0 mm 4 m/s 760 mmHg 64%
    22:00 +10°C° 0 mm 4 m/s 760 mmHg 65%
    23:00 +8°C° 0 mm 4 m/s 761 mmHg 65%

    Après-demain, 26 Mai, Samedi

    Heure Température Précipitation Vent Pression Humidité
    00:00 +8°C° 0 mm 4 m/s 761 mmHg 66%
    01:00 +8°C° 0 mm 3 m/s 762 mmHg 67%
    02:00 +7°C° 0 mm 3 m/s 762 mmHg 69%
    03:00 +7°C° 0 mm 3 m/s 763 mmHg 70%
    04:00 +7°C° 0 mm 3 m/s 763 mmHg 69%
    05:00 +8°C° 0 mm 3 m/s 764 mmHg 68%
    06:00 +8°C° 0 mm 3 m/s 764 mmHg 67%
    07:00 +10°C° 0 mm 4 m/s 764 mmHg 62%
    08:00 +11°C° 0 mm 4 m/s 765 mmHg 56%
    09:00 +13°C° 0 mm 5 m/s 765 mmHg 50%
    10:00 +14°C° 0 mm 5 m/s 765 mmHg 49%
    11:00 +14°C° 0 mm 4 m/s 765 mmHg 47%
    12:00 +15°C° 0 mm 4 m/s 765 mmHg 46%
    13:00 +17°C° 0 mm 4 m/s 765 mmHg 45%
    14:00 +17°C° 0 mm 4 m/s 765 mmHg 45%
    15:00 +18°C° 0 mm 3 m/s 765 mmHg 44%
    16:00 +18°C° 0 mm 3 m/s 765 mmHg 47%
    17:00 +18°C° 0 mm 2 m/s 765 mmHg 50%
    18:00 +18°C° 0 mm 2 m/s 764 mmHg 53%
    19:00 +16°C° 0 mm 1 m/s 765 mmHg 56%
    20:00 +14°C° 0 mm 1 m/s 765 mmHg 60%
    21:00 +12°C° 0 mm 1 m/s 765 mmHg 63%
    22:00 +11°C° 0 mm 1 m/s 765 mmHg 64%
    23:00 +11°C° 0 mm 1 m/s 765 mmHg 65%

    27 Mai, Dimanche

    Heure Température Précipitation Vent Pression Humidité
    00:00 +9°C° 0 mm 2 m/s 765 mmHg 66%
    01:00 +9°C° 0 mm 2 m/s 765 mmHg 69%
    02:00 +8°C° 0 mm 2 m/s 765 mmHg 71%
    03:00 +8°C° 0 mm 2 m/s 766 mmHg 73%
    04:00 +9°C° 0 mm 2 m/s 765 mmHg 73%
    05:00 +9°C° 0 mm 2 m/s 765 mmHg 74%
    06:00 +10°C° 0 mm 2 m/s 765 mmHg 74%
    07:00 +13°C° 0 mm 2 m/s 765 mmHg 69%
    08:00 +13°C° 0 mm 3 m/s 765 mmHg 64%
    09:00 +16°C° 0 mm 3 m/s 765 mmHg 58%
    10:00 +17°C° 0 mm 3 m/s 764 mmHg 56%
    11:00 +18°C° 0 mm 3 m/s 764 mmHg 53%
    12:00 +19°C° 0 mm 3 m/s 764 mmHg 51%
    13:00 +19°C° 0 mm 4 m/s 763 mmHg 51%
    14:00 +19°C° 0 mm 4 m/s 762 mmHg 51%
    15:00 +20°C° 0 mm 4 m/s 762 mmHg 51%
    16:00 +20°C° 0 mm 4 m/s 761 mmHg 55%
    17:00 +19°C° 0 mm 3 m/s 761 mmHg 59%
    18:00 +19°C° 0 mm 3 m/s 760 mmHg 63%
    19:00 +17°C° 0 mm 3 m/s 760 mmHg 68%
    20:00 +14°C° 0 mm 3 m/s 760 mmHg 72%
    21:00 +13°C° 0 mm 3 m/s 760 mmHg 77%
    22:00 +12°C° 0 mm 3 m/s 759 mmHg 78%
    23:00 +12°C° 0 mm 3 m/s 759 mmHg 78%

    28 Mai, Lundi

    Heure Température Précipitation Vent Pression Humidité
    00:00 +11°C° 0 mm 3 m/s 759 mmHg 78%
    01:00 +11°C° 0 mm 3 m/s 759 mmHg 79%
    02:00 +11°C° 0 mm 3 m/s 759 mmHg 79%
    03:00 +11°C° 0 mm 3 m/s 759 mmHg 79%
    04:00 +12°C° 0 mm 3 m/s 759 mmHg 80%
    05:00 +12°C° 0 mm 3 m/s 759 mmHg 80%
    06:00 +12°C° 0 mm 3 m/s 759 mmHg 81%
    07:00 +14°C° 0 mm 3 m/s 759 mmHg 78%
    08:00 +17°C° 0 mm 4 m/s 759 mmHg 74%
    09:00 +18°C° 0 mm 4 m/s 759 mmHg 71%
    10:00 +19°C° 0 mm 5 m/s 760 mmHg 65%
    11:00 +19°C° 0 mm 5 m/s 760 mmHg 58%
    12:00 +20°C° 0 mm 6 m/s 760 mmHg 51%
    13:00 +20°C° 0 mm 6 m/s 760 mmHg 49%
    14:00 +20°C° 0 mm 6 m/s 760 mmHg 46%
    15:00 +19°C° 0 mm 6 m/s 761 mmHg 44%
    16:00 +19°C° 0 mm 5 m/s 761 mmHg 48%
    17:00 +18°C° 0 mm 4 m/s 761 mmHg 52%
    18:00 +17°C° 0 mm 4 m/s 761 mmHg 56%
    19:00 +14°C° 0 mm 3 m/s 762 mmHg 59%
    20:00 +12°C° 0 mm 3 m/s 762 mmHg 62%
    21:00 +12°C° 0 mm 2 m/s 763 mmHg 65%
    22:00 +10°C° 0 mm 2 m/s 763 mmHg 65%
    23:00 +9°C° 0 mm 2 m/s 763 mmHg 65%

    29 Mai, Mardi

    Heure Température Précipitation Vent Pression Humidité
    00:00 +8°C° 0 mm 2 m/s 763 mmHg 66%
    01:00 +8°C° 0 mm 2 m/s 764 mmHg 67%
    02:00 +8°C° 0 mm 2 m/s 764 mmHg 67%
    03:00 +8°C° 0 mm 1 m/s 764 mmHg 68%
    04:00 +8°C° 0 mm 2 m/s 764 mmHg 69%
    05:00 +9°C° 0 mm 2 m/s 764 mmHg 70%
    06:00 +10°C° 0 mm 2 m/s 764 mmHg 71%
    07:00 +12°C° 0 mm 3 m/s 764 mmHg 66%
    08:00 +14°C° 0 mm 3 m/s 764 mmHg 61%
    09:00 +15°C° 0 mm 4 m/s 764 mmHg 55%
    10:00 +18°C° 0 mm 4 m/s 764 mmHg 53%
    11:00 +19°C° 0 mm 4 m/s 764 mmHg 51%
    12:00 +20°C° 0 mm 5 m/s 763 mmHg 49%
    13:00 +21°C° 0 mm 5 m/s 763 mmHg 49%
    14:00 +22°C° 0 mm 5 m/s 762 mmHg 49%
    15:00 +22°C° 0 mm 5 m/s 762 mmHg 50%
    16:00 +22°C° 0 mm 5 m/s 762 mmHg 54%
    17:00 +21°C° 0 mm 4 m/s 761 mmHg 58%
    18:00 +21°C° 0 mm 4 m/s 761 mmHg 63%
    19:00 +19°C° 0 mm 4 m/s 761 mmHg 67%
    20:00 +18°C° 0 mm 4 m/s 760 mmHg 72%
    21:00 +15°C° 0 mm 4 m/s 760 mmHg 76%
    22:00 +16°C° 0 mm 3 m/s 760 mmHg 77%
    23:00 +14°C° 0 mm 3 m/s 760 mmHg 78%
    Voir plus